#timestamp,LO_Frequency,Hit,StdDev 
1619816415.3,286047001.2,Y
1619816435.1,286047000.9,P
1619816455.9,286046998.4,P
1619816475.7,286046998.1,N
1619816495.6,286046998.2,N
1619816515.4,286046998.2,N
1619816535.2,286046998.6,N
1619816555.1,286046998.3,N
1619816556.0,286046998.3,N
1619816575.8,286047001.2,N
1619816595.7,286046998.9,N
1619816615.5,286046998.2,N
1619816635.3,286046998.2,N
1619816655.2,286046998.8,N
1619816675.0,286046998.1,N
1619816675.9,286046998.1,N
1619816695.7,286046998.7,N
1619816715.6,286047000.7,N
1619816735.4,286047001.2,N
1619816755.3,286047000.8,N
1619816775.1,286047000.9,N
1619816776.0,286047000.9,N
1619816795.8,286047001.0,N
1619816815.7,286046998.2,N
1619816835.5,286047000.8,N
1619816855.3,286047001.1,N
1619816875.2,286047000.9,N
1619816895.0,286047000.5,N
1619816895.9,286047000.5,N
1619816915.8,286047000.4,N
1619816935.6,286047000.4,N
1619816955.4,286047000.3,N
1619816975.3,286047000.8,N
1619816995.1,286047000.4,N
1619817015.9,286047000.7,N
1619817035.7,286047000.6,N
1619817055.5,286047000.5,N
1619817075.4,286047000.5,N
1619817095.2,286046998.1,N
1619817115.0,286046998.5,N
1619817115.9,286046998.5,N
1619817135.8,286047000.7,N
1619817155.6,286047000.8,N
1619817175.5,286047001.1,N
1619817195.3,286046998.6,N
1619817215.1,286046998.7,N
1619817235.9,286046998.5,N
1619817255.7,286046998.1,N
1619817275.5,286046998.2,N
1619817295.4,286047001.0,N
1619817315.2,286047000.8,N
1619817335.1,286047001.2,N
1619817336.0,286047001.2,N
1619817355.8,286047001.0,N
1619817375.6,286047000.9,N
1619817395.5,286046998.1,N
1619817415.3,286047000.6,N
1619817435.2,286046998.2,N
1619817455.9,286047000.7,N
1619817475.7,286046998.1,N
1619817495.6,286046998.4,N
1619817515.4,286047001.2,N
1619817535.2,286046998.5,N
1619817555.1,286046998.2,N
1619817556.0,286046998.2,N
1619817575.8,286046998.1,N
1619817595.7,286046998.4,N
1619817615.5,286047001.2,N
1619817635.3,286046998.3,N
1619817655.2,286046999.3,N
1619817675.0,286046998.6,N
1619817675.9,286046998.6,N
1619817695.8,286046998.8,N
1619817715.6,286046998.3,N
1619817735.4,286046998.3,N
1619817755.3,286047001.2,N
1619817775.1,286046998.2,N
1619817795.8,286046998.4,N
1619817815.7,286047001.1,N
1619817835.5,286046998.2,N
1619817855.4,286046999.0,N
1619817875.2,286047000.7,N
1619817895.0,286046998.5,N
1619817895.9,286046998.5,N
1619817915.8,286046998.6,N
1619817935.6,286046998.6,N
1619817955.5,286046998.6,N
1619817975.3,286046998.6,N
1619817995.1,286046998.5,N
1619818015.9,286046998.2,N
1619818035.7,286046998.6,N
1619818055.5,286046998.3,N
1619818075.4,286046998.5,N
1619818095.2,286046999.0,N
1619818115.1,286046998.5,N
1619818116.0,286046998.5,N
1619818135.8,286046998.5,N
1619818155.6,286046998.5,N
1619818175.5,286046998.2,N
1619818195.3,286046998.5,N
1619818215.2,286046998.6,N
1619818235.9,286046998.4,N
1619818255.7,286047000.8,N
1619818275.6,286046998.5,N
1619818295.4,286046998.3,N
1619818315.3,286046998.6,N
1619818335.1,286046998.3,N
1619818336.0,286046998.3,N
1619818355.8,286047001.0,N
1619818375.7,286047001.2,N
1619818395.5,286047000.7,N
1619818415.3,286047001.1,N
1619818435.2,286047001.2,N
1619818455.0,286046998.7,N
1619818455.9,286046998.7,N
1619818475.8,286047001.0,N
1619818495.6,286047001.2,N
1619818515.4,286047001.2,N
1619818535.3,286047000.8,N
1619818555.1,286046999.3,N
1619818575.8,286047001.2,N
1619818595.7,286046998.9,N
1619818615.5,286046998.5,N
1619818635.4,286046998.5,N
1619818655.2,286046998.2,N
1619818675.0,286046998.4,N
1619818675.9,286046998.4,N
1619818695.8,286046998.4,N
1619818715.6,286046998.2,N
1619818735.4,286046998.2,N
1619818755.3,286046998.2,N
1619818775.1,286046998.1,N
1619818795.9,286046998.2,N
1619818815.7,286046998.5,N
1619818835.5,286046998.5,N
1619818855.4,286046998.5,N
1619818875.2,286046998.5,N
1619818895.1,286046998.1,N
1619818896.0,286046998.1,N
1619818915.8,286046998.2,N
1619818935.6,286046998.5,N
1619818955.5,286046998.2,N
1619818975.3,286046998.4,N
1619818995.1,286046998.7,N
1619819015.9,286046998.3,N
1619819035.7,286046998.6,N
1619819055.6,286046999.3,N
1619819075.4,286046998.3,N
1619819095.2,286047000.8,N
1619819115.1,286046998.5,N
1619819116.0,286046998.5,N
1619819135.8,286046998.3,Y
1619819155.7,286047000.0,P
1619819175.5,286046999.8,N
1619819195.3,286047000.3,N
1619819215.2,286046999.7,N
1619819235.0,286047002.7,Y
1619819235.9,286047002.7,P
1619819255.8,286046999.7,N
1619819275.6,286047002.3,N
1619819295.4,286047002.7,N
1619819315.3,286047002.6,N
1619819335.1,286046999.7,N
1619819355.8,286047002.5,N
1619819375.7,286047002.3,N
1619819395.5,286047002.5,N
1619819415.4,286047002.6,N
1619819435.2,286047002.2,N
1619819455.0,286047000.2,N
1619819455.9,286047000.2,N
1619819475.8,286047002.8,N
1619819495.6,286047002.4,N
1619819515.5,286046999.7,N
1619819535.3,286047002.5,N
1619819555.1,286046999.7,N
1619819575.9,286047002.2,N
1619819595.7,286047002.6,N
1619819615.5,286047002.4,N
1619819635.4,286047002.4,N
1619819655.2,286047002.7,N
1619819675.1,286047000.1,N
1619819676.0,286047000.1,N
1619819695.8,286047000.1,N
1619819715.6,286046999.8,N
1619819735.5,286047002.7,N
1619819755.3,286047002.4,N
1619819775.1,286047002.6,N
1619819795.9,286047002.6,N
1619819815.7,286047002.5,N
1619819835.6,286047002.4,N
1619819855.4,286047002.7,N
1619819875.2,286047002.3,N
1619819895.1,286047002.6,N
1619819896.0,286047002.6,N
1619819915.8,286047002.3,N
1619819935.6,286047002.8,N
1619819955.5,286047002.8,N
1619819975.3,286047000.3,N
1619819995.2,286047002.6,N
